[[{"header":{"parameterUnit":"m.s-1","parameterCategory":1,"la1":30.2991,"la2":30.254,"lo1":-89.0895,"lo2":-89.0444,"dy":0.0017,"dx":0.0017,"nx":28,"ny":28,"refTime":"2024-08-08T21:00:00:Z","depth":0,"parameterNumber":2,"parameterNumberName":"U-component_of_WINDS"},"data":[0,0,0,0,0,0,0,0,0,0,0,0,0,0,0,0,0,0,0,0,0,0,0,0,0,0,0,0,0,0,0,0,0,0,0,0,0,0,0,0,0,0,0,0,0,0,0,0,0,0,0,0,0,0,0,0,0,0,4.1782,4.1782,0,4.1787,4.1787,4.1787,4.1743,4.1741,4.174,4.1739,4.1747,4.1748,4.175,0,0,0,0,0,0,0,0,0,0,0,0,0,4.1739,4.174,4.1782,4.1782,4.1782,4.1787,4.1787,4.1787,4.1743,4.1741,4.174,4.1738,4.1746,4.1748,4.175,0,0,0,0,0,0,0,0,0,0,0,0,0,4.1752,4.174,4.1782,4.176,4.1758,4.1787,4.1787,4.1787,4.1743,4.1741,4.1739,4.1738,4.1746,4.1748,4.175,4.18,0,0,4.1756,4.1757,0,0,0,0,0,0,0,0,4.1751,4.1754,4.1763,4.1762,4.176,4.1762,4.1775,4.1791,4.1744,4.1749,4.1739,4.1737,4.1754,4.1755,4.176,4.18,4.1801,4.1756,4.1758,4.1759,4.1759,0,0,0,0,0,0,0,4.175,4.1753,4.1784,4.1764,4.1761,4.1752,4.1752,4.1778,4.1762,4.1748,4.1745,4.1746,4.1752,4.1758,4.176,4.1801,4.1756,4.1758,4.1759,4.176,4.1887,4.1889,0,0,0,0,0,0,4.1752,4.1753,4.1784,4.1784,4.1751,4.1754,4.1754,4.1763,4.1761,4.1759,4.1748,4.1744,4.1756,4.1758,4.176,4.1822,4.1759,4.176,4.1762,4.1885,4.1888,4.189,0,0,0,0,0,0,4.1751,4.1755,4.1783,4.1767,4.177,4.1757,4.1768,4.1764,4.177,4.1761,4.1758,4.1756,4.1754,4.1757,4.1791,4.1821,4.1761,4.1763,4.1883,4.1886,4.1889,4.1943,0,0,0,0,0,0,4.175,4.1755,4.1772,4.1768,4.1771,4.1813,4.1769,4.1766,4.1774,4.1769,4.1768,4.1766,4.1753,4.1788,4.1793,4.1823,4.1765,4.188,4.1884,4.1888,4.1939,4.1948,4.1956,0,0,0,0,0,4.1749,4.1787,4.1773,4.1777,4.1793,4.1815,4.1817,4.18,4.1776,4.1795,4.1789,4.1766,4.1817,4.1792,4.1797,4.1828,4.1878,4.1883,4.1887,4.1935,4.1946,4.1956,0,0,0,0,0,0,4.1795,4.1786,4.1771,4.1809,4.1813,4.1807,4.183,4.1811,4.1823,4.1818,4.1797,4.1798,4.1836,4.1835,4.1808,4.1879,4.1844,4.185,4.1878,4.1889,4.1897,4.1897,4.1767,0,0,0,0,0,4.181,4.1827,4.1819,4.1853,4.1856,4.1843,4.1852,4.1839,4.1842,4.1844,4.1841,4.1847,4.1864,4.1876,4.1891,4.1938,4.194,4.1962,4.1971,4.1978,4.1984,4.2013,4.2024,4.1906,4.1906,4.1906,0,0,4.184,4.1838,4.185,4.1863,4.1864,4.1885,4.1845,4.1867,4.1883,4.1848,4.188,4.1879,4.1884,4.1926,4.1944,4.1926,4.2017,4.1984,4.199,4.1992,4.2019,4.203,4.204,4.1909,4.1908,4.1908,0,0,4.1907,4.1905,4.1936,4.1939,4.1942,4.1933,4.1941,4.1939,4.1936,4.1969,4.1944,4.1963,4.1992,4.1998,4.2005,4.2078,4.2059,4.2084,4.2129,4.2158,4.2167,4.2175,4.2205,4.2215,4.209,4.209,4.209,0,4.1945,4.1974,4.1954,4.1979,4.1987,4.1956,4.1989,4.1993,4.2001,4.2009,4.1988,4.2027,4.2028,4.2073,4.2091,4.2097,4.2107,4.2084,4.2167,4.2175,4.2182,4.221,4.2221,4.2093,4.2093,4.2092,4.2092,0,4.2022,4.2043,4.2067,4.2077,4.2087,4.2116,4.2103,4.2116,4.2103,4.2097,4.2133,4.2133,4.215,4.2159,4.2146,4.2204,4.2193,4.217,4.2135,4.2197,4.2223,4.2234,4.2098,4.2096,4.2095,4.2095,0,0,4.2117,4.2117,4.2127,4.2133,4.2135,4.2152,4.2181,4.2197,4.221,4.2218,4.2244,4.2271,4.2251,4.2259,4.2246,4.2271,4.2334,4.2246,4.2246,4.2265,4.2402,4.2421,4.2433,4.2321,4.2322,4.2324,4.2402,0,4.2185,4.2233,4.2218,4.2267,4.2288,4.2261,4.2287,4.2292,4.2289,4.2308,4.2304,4.2325,4.2295,4.23,4.2323,4.2321,4.2361,4.2315,4.2347,4.2349,4.2349,4.2446,4.2465,4.2539,4.2412,4.2414,4.2415,0,4.227,4.2282,4.2334,4.2336,4.2344,4.2367,4.2383,4.24,4.2408,4.2404,4.2415,4.2398,4.2429,4.2393,4.2438,4.2407,4.2419,4.2421,4.2423,4.2427,4.2387,4.2455,4.2561,4.2574,4.243,4.2429,4.2428,0,4.2338,4.2367,4.2403,4.2408,4.2411,4.2428,4.2431,4.2436,4.2448,4.2462,4.2471,4.2488,4.2499,4.2514,4.2504,4.2478,4.2552,4.2514,4.2552,4.2553,4.257,4.2569,4.2683,4.2574,4.2574,4.2574,4.2574,0,4.2416,4.245,4.2434,4.2456,4.2494,4.2477,4.2516,4.2515,4.2521,4.2545,4.2522,4.2545,4.2529,4.2552,4.2544,4.2585,4.2589,4.2589,4.2587,4.2592,4.2593,4.2601,4.2597,4.2577,4.2576,4.2575,4.2575,0,4.2499,4.2489,4.2527,4.2528,4.2529,4.2557,4.2559,4.2581,4.2576,4.2607,4.2613,4.2607,4.2632,4.2624,4.2651,4.2646,4.2699,4.2689,4.2696,4.2695,4.2735,4.2732,4.2859,4.2877,4.2755,4.2756,4.2757,0,4.2551,4.2576,4.258,4.2594,4.2598,4.2621,4.2633,4.2619,4.2633,4.2646,4.2667,4.2691,4.2709,4.2752,4.2751,4.2773,4.2765,4.2809,4.2769,4.2775,4.277,4.2769,4.2774,4.2817,4.2818,4.282,4.282,0,4.2645,4.2639,4.2657,4.2676,4.2691,4.2705,4.2716,4.2729,4.2716,4.2734,4.276,4.2774,4.2803,4.2828,4.2849,4.2854,4.2837,4.2833,4.2844,4.285,4.2855,4.2856,4.2721,4.283,4.2829,4.2829,4.2828,4.2828,4.2715,4.2738,4.2746,4.2768,4.2775,4.2787,4.2809,4.2808,4.2829,4.2851,4.2842,4.2873,4.2884,4.291,4.2917,4.2943,4.2927,4.2941,4.2945,4.295,4.2957,4.2849,4.2946,4.2946,4.2946,4.2946,4.2945,0,4.2811,4.2815,4.2835,4.2853,4.2872,4.2852,4.2865,4.2883,4.291,4.2921,4.294,4.2972,4.2997,4.2999,4.3023,4.3044,4.3037,4.3051,4.3051,4.3053,4.2968,4.2958,4.3057,4.3057,4.3057,4.3057,4.3057,4.3057,4.2863,4.2902,4.2898,4.2941,4.2945,4.2975,4.2985,4.2997,4.3006,4.3043,4.3063,4.3064,4.3073,4.3098,4.3122,4.3122,4.3133,4.3151,4.3149,4.307,4.3059,4.3048,4.3039,4.3153,4.3153,4.3232,4.3233,4.3233]},{"header":{"parameterUnit":"m.s-1","parameterCategory":1,"la1":30.2991,"la2":30.254,"lo1":-89.0895,"lo2":-89.0444,"dy":0.0017,"dx":0.0017,"nx":28,"ny":28,"refTime":"2024-08-08T21:00:00:Z","depth":0,"parameterNumber":3,"parameterNumberName":"V-component_of_WINDS"},"data":[0,0,0,0,0,0,0,0,0,0,0,0,0,0,0,0,0,0,0,0,0,0,0,0,0,0,0,0,0,0,0,0,0,0,0,0,0,0,0,0,0,0,0,0,0,0,0,0,0,0,0,0,0,0,0,0,0,0,-0.4507,-0.4506,0,-0.4373,-0.4371,-0.437,-0.4377,-0.4379,-0.4381,-0.4383,-0.4241,-0.4235,-0.423,0,0,0,0,0,0,0,0,0,0,0,0,0,-0.477,-0.4765,-0.4508,-0.4506,-0.4504,-0.4373,-0.4371,-0.4369,-0.4377,-0.4379,-0.4381,-0.4384,-0.4243,-0.4236,-0.4229,0,0,0,0,0,0,0,0,0,0,0,0,0,-0.4648,-0.4764,-0.4508,-0.4492,-0.4489,-0.4373,-0.4371,-0.4369,-0.4376,-0.4379,-0.4382,-0.4385,-0.4245,-0.4237,-0.4228,-0.4118,0,0,-0.4203,-0.4199,0,0,0,0,0,0,0,0,-0.4655,-0.4638,-0.4496,-0.4493,-0.449,-0.4395,-0.4412,-0.4284,-0.4375,-0.4419,-0.4383,-0.4386,-0.4289,-0.4278,-0.4246,-0.4111,-0.4105,-0.4202,-0.4197,-0.4193,-0.4191,0,0,0,0,0,0,0,-0.4663,-0.4644,-0.4454,-0.4494,-0.449,-0.4492,-0.4477,-0.4388,-0.4339,-0.4415,-0.4416,-0.44,-0.4288,-0.4254,-0.4242,-0.4103,-0.4202,-0.4195,-0.419,-0.4186,-0.3875,-0.3872,0,0,0,0,0,0,-0.4675,-0.4651,-0.4458,-0.445,-0.4581,-0.4484,-0.4469,-0.4422,-0.434,-0.4331,-0.4398,-0.4401,-0.4267,-0.4252,-0.4237,-0.4106,-0.4193,-0.4186,-0.4181,-0.3878,-0.3874,-0.3871,0,0,0,0,0,0,-0.4681,-0.4658,-0.4464,-0.4551,-0.4526,-0.4477,-0.4425,-0.4418,-0.4384,-0.4327,-0.4318,-0.4371,-0.4268,-0.4249,-0.4149,-0.4101,-0.4182,-0.4174,-0.3882,-0.3877,-0.3873,-0.3839,0,0,0,0,0,0,-0.4689,-0.466,-0.4618,-0.455,-0.4521,-0.4377,-0.4422,-0.4413,-0.437,-0.4373,-0.43,-0.4291,-0.4269,-0.4161,-0.414,-0.409,-0.4168,-0.3886,-0.388,-0.3874,-0.3844,-0.3834,-0.3825,0,0,0,0,0,-0.4698,-0.4612,-0.4615,-0.4592,-0.4467,-0.4375,-0.4358,-0.4337,-0.4366,-0.4323,-0.4287,-0.4293,-0.4109,-0.4151,-0.4127,-0.4074,-0.3889,-0.3882,-0.3875,-0.3849,-0.3836,-0.3825,0,0,0,0,0,0,-0.4673,-0.4602,-0.4606,-0.4495,-0.4441,-0.4376,-0.4321,-0.4323,-0.4259,-0.4264,-0.4239,-0.4222,-0.4122,-0.4088,-0.4136,-0.3965,-0.4003,-0.3991,-0.3991,-0.3978,-0.3969,-0.3979,-0.4161,0,0,0,0,0,-0.4655,-0.4587,-0.4528,-0.4436,-0.4409,-0.437,-0.4329,-0.4317,-0.426,-0.4236,-0.4193,-0.4136,-0.4066,-0.402,-0.3952,-0.3839,-0.3825,-0.3791,-0.3782,-0.3774,-0.3764,-0.3705,-0.369,-0.3847,-0.3847,-0.3847,0,0,-0.4616,-0.4569,-0.4527,-0.443,-0.4387,-0.4317,-0.435,-0.4274,-0.4222,-0.4224,-0.4128,-0.4094,-0.4029,-0.3923,-0.3874,-0.3892,-0.3717,-0.3765,-0.3759,-0.3753,-0.3696,-0.3681,-0.3668,-0.3842,-0.3843,-0.3844,0,0,-0.4511,-0.4467,-0.4388,-0.4345,-0.428,-0.4255,-0.4236,-0.4172,-0.415,-0.4053,-0.4055,-0.3992,-0.3871,-0.3826,-0.3787,-0.3669,-0.3673,-0.3647,-0.3596,-0.3539,-0.3527,-0.3516,-0.3476,-0.3462,-0.3637,-0.3637,-0.3637,0,-0.4471,-0.4366,-0.4346,-0.4271,-0.4229,-0.423,-0.415,-0.4109,-0.4024,-0.3996,-0.4017,-0.3868,-0.3823,-0.3709,-0.3681,-0.3648,-0.3627,-0.3655,-0.353,-0.3519,-0.3508,-0.347,-0.3455,-0.3634,-0.3635,-0.3635,-0.3635,0,-0.4321,-0.4249,-0.4192,-0.4114,-0.4065,-0.3987,-0.3957,-0.391,-0.3903,-0.3876,-0.3779,-0.3727,-0.3651,-0.3622,-0.3613,-0.3507,-0.352,-0.3536,-0.3574,-0.3491,-0.3455,-0.344,-0.3631,-0.3632,-0.3633,-0.3633,0,0,-0.4194,-0.4109,-0.4089,-0.4055,-0.3985,-0.3929,-0.3852,-0.3779,-0.3741,-0.3683,-0.3619,-0.3518,-0.3534,-0.349,-0.3476,-0.3426,-0.3339,-0.3448,-0.3446,-0.3432,-0.3222,-0.3212,-0.3196,-0.3342,-0.3339,-0.3336,-0.3229,0,-0.4084,-0.3949,-0.3931,-0.3812,-0.3746,-0.3748,-0.3681,-0.3632,-0.3605,-0.3545,-0.3515,-0.3446,-0.347,-0.3444,-0.3394,-0.3361,-0.3297,-0.3368,-0.3283,-0.328,-0.3301,-0.3176,-0.3164,-0.3065,-0.3214,-0.3212,-0.321,0,-0.3936,-0.3878,-0.3753,-0.3696,-0.3667,-0.3608,-0.3541,-0.3484,-0.3428,-0.3413,-0.3366,-0.3359,-0.3281,-0.3322,-0.3215,-0.3263,-0.3228,-0.3206,-0.3202,-0.3194,-0.3241,-0.3167,-0.3032,-0.3019,-0.3187,-0.3189,-0.319,0,-0.386,-0.3749,-0.3661,-0.3632,-0.3562,-0.3521,-0.349,-0.3437,-0.3396,-0.3337,-0.3311,-0.3243,-0.3206,-0.3154,-0.3131,-0.3162,-0.3026,-0.3064,-0.3012,-0.3012,-0.2983,-0.2986,-0.2843,-0.2957,-0.2958,-0.2958,-0.2958,0,-0.3739,-0.3663,-0.3627,-0.3573,-0.3489,-0.3469,-0.3386,-0.3356,-0.331,-0.325,-0.3247,-0.3191,-0.3163,-0.3103,-0.3084,-0.3,-0.2982,-0.2968,-0.2964,-0.2969,-0.2971,-0.2946,-0.2953,-0.2954,-0.2955,-0.2955,-0.2956,0,-0.3639,-0.3612,-0.3517,-0.346,-0.3444,-0.3384,-0.3336,-0.3284,-0.3259,-0.3184,-0.3165,-0.3126,-0.3056,-0.3027,-0.294,-0.2928,-0.2832,-0.2832,-0.2851,-0.285,-0.2801,-0.2807,-0.2638,-0.2616,-0.2743,-0.2742,-0.2741,0,-0.3565,-0.3507,-0.3445,-0.3406,-0.3375,-0.3311,-0.327,-0.3248,-0.3205,-0.314,-0.3096,-0.3027,-0.2971,-0.2859,-0.2822,-0.2757,-0.2756,-0.2702,-0.2746,-0.2755,-0.2759,-0.2763,-0.2759,-0.2694,-0.2693,-0.2692,-0.2691,0,-0.3436,-0.3427,-0.3368,-0.3305,-0.3257,-0.3205,-0.3156,-0.3124,-0.3095,-0.3047,-0.2977,-0.2933,-0.2847,-0.2779,-0.2712,-0.268,-0.2681,-0.2678,-0.2663,-0.2668,-0.2683,-0.2677,-0.2831,-0.2682,-0.2683,-0.2683,-0.2684,-0.2684,-0.3348,-0.3299,-0.3249,-0.3184,-0.3145,-0.31,-0.3049,-0.302,-0.2961,-0.289,-0.2881,-0.2806,-0.2755,-0.2666,-0.2631,-0.2573,-0.2587,-0.2564,-0.2559,-0.2554,-0.2552,-0.2691,-0.256,-0.256,-0.2561,-0.2561,-0.2561,0,-0.3222,-0.3191,-0.3132,-0.3064,-0.3014,-0.3021,-0.2968,-0.2925,-0.286,-0.2812,-0.2758,-0.2679,-0.2614,-0.2573,-0.2508,-0.2469,-0.2468,-0.2453,-0.2456,-0.245,-0.2542,-0.2563,-0.2455,-0.2455,-0.2455,-0.2455,-0.2455,-0.2455,-0.3151,-0.3068,-0.3053,-0.2952,-0.292,-0.2849,-0.2818,-0.2777,-0.2739,-0.2652,-0.2598,-0.2573,-0.2529,-0.2461,-0.2402,-0.2392,-0.2369,-0.2353,-0.2344,-0.2431,-0.2442,-0.2453,-0.2473,-0.2347,-0.2347,-0.2257,-0.2256,-0.2255]}]]